Time,TemperatureF,DewpointF,PressureIn,WindDirection,WindDirectionDegrees,WindSpeedMPH,WindSpeedGustMPH,Humidity,HourlyPrecipIn,Conditions,Clouds,dailyrainin,SolarRadiationWatts/m^2,SoftwareType,DateUTC
2013-02-20 00:00:00,10.8,4.4,30.25,NW,313,12.7,12.7,75,0.00,-SN,,0.01,0.0,WeatherDisplay:10.37,2013-02-20 06:00:00,
2013-02-20 00:05:00,10.7,4.3,30.25,NW,306,11.5,11.5,75,0.00,-SN,,0.00,0.0,WeatherDisplay:10.37,2013-02-20 06:05:00,
2013-02-20 00:10:00,10.6,4.2,30.25,NW,319,13.0,13.0,75,0.00,-SN,,0.00,0.0,WeatherDisplay:10.37,2013-02-20 06:10:00,
2013-02-20 00:15:00,10.5,4.4,30.26,WNW,290,16.1,16.1,76,0.00,-SN,,0.00,0.0,WeatherDisplay:10.37,2013-02-20 06:15:00,
2013-02-20 00:20:00,10.5,4.4,30.26,WNW,298,10.4,10.4,76,0.00,-SN,,0.00,0.0,WeatherDisplay:10.37,2013-02-20 06:20:00,
2013-02-20 00:25:00,10.4,4.3,30.26,NW,307,11.5,11.5,76,0.00,-SN,,0.00,0.0,WeatherDisplay:10.37,2013-02-20 06:25:00,
2013-02-20 00:30:00,10.3,4.2,30.26,NW,315,11.5,11.5,76,0.00,-SN,,0.00,0.0,WeatherDisplay:10.37,2013-02-20 06:30:00,
2013-02-20 00:35:00,10.3,4.2,30.27,NW,318,11.5,11.5,76,0.00,SCT,,0.00,0.0,WeatherDisplay:10.37,2013-02-20 06:35:00,
2013-02-20 00:40:00,10.3,4.2,30.27,NW,304,11.5,11.5,76,0.00,SCT,,0.00,0.0,WeatherDisplay:10.37,2013-02-20 06:40:00,
2013-02-20 00:45:00,10.3,4.2,30.26,WNW,287,13.8,13.8,76,0.00,SCT,,0.00,0.0,WeatherDisplay:10.37,2013-02-20 06:45:00,
2013-02-20 00:50:00,10.3,4.2,30.27,NW,309,11.5,11.5,76,0.00,CLR,,0.00,0.0,WeatherDisplay:10.37,2013-02-20 06:50:00,
2013-02-20 00:55:00,10.2,4.1,30.27,WNW,288,12.7,12.7,76,0.00,CLR,,0.00,0.0,WeatherDisplay:10.37,2013-02-20 06:55:00,
2013-02-20 01:00:00,10.1,4.0,30.27,NW,317,16.1,16.1,76,0.00,CLR,,0.00,0.0,WeatherDisplay:10.37,2013-02-20 07:00:00,
2013-02-20 01:05:00,10.1,4.0,30.27,WNW,303,11.5,11.5,76,0.00,CLR,,0.00,0.0,WeatherDisplay:10.37,2013-02-20 07:05:00,
2013-02-20 01:10:00,10.0,3.9,30.27,WNW,283,15.0,15.0,76,0.00,CLR,,0.00,0.0,WeatherDisplay:10.37,2013-02-20 07:10:00,
2013-02-20 01:15:00,10.0,3.9,30.27,WNW,294,12.7,12.7,76,0.00,CLR,,0.00,0.0,WeatherDisplay:10.37,2013-02-20 07:15:00,
2013-02-20 01:20:00,9.9,3.8,30.28,WNW,294,15.0,15.0,76,0.00,CLR,,0.00,0.0,WeatherDisplay:10.37,2013-02-20 07:20:00,
2013-02-20 01:25:00,9.9,3.8,30.27,West,271,11.5,11.5,76,0.00,CLR,,0.00,0.0,WeatherDisplay:10.37,2013-02-20 07:25:00,
2013-02-20 01:30:00,9.9,4.1,30.28,NNW,343,10.4,10.4,77,0.00,CLR,,0.00,0.0,WeatherDisplay:10.37,2013-02-20 07:30:00,
2013-02-20 01:35:00,9.8,3.7,30.28,West,261,10.4,10.4,76,0.00,CLR,,0.00,0.0,WeatherDisplay:10.37,2013-02-20 07:35:00,
2013-02-20 01:40:00,9.8,4.0,30.28,NW,305,9.2,9.2,77,0.00,CLR,,0.00,0.0,WeatherDisplay:10.37,2013-02-20 07:40:00,
2013-02-20 01:45:00,9.8,4.0,30.28,WNW,289,11.5,11.5,77,0.00,CLR,,0.00,0.0,WeatherDisplay:10.37,2013-02-20 07:45:00,
2013-02-20 01:50:00,9.6,3.8,30.28,WNW,296,12.7,12.7,77,0.00,CLR,,0.00,0.0,WeatherDisplay:10.37,2013-02-20 07:50:00,
2013-02-20 01:55:00,9.5,3.7,30.28,NW,304,10.4,10.4,77,0.00,CLR,,0.00,0.0,WeatherDisplay:10.37,2013-02-20 07:55:00,
2013-02-20 02:00:00,9.5,3.7,30.28,NW,315,12.7,12.7,77,0.00,CLR,,0.00,0.0,WeatherDisplay:10.37,2013-02-20 08:00:00,
2013-02-20 02:05:00,9.4,3.6,30.29,NW,311,13.8,13.8,77,0.00,CLR,,0.00,0.0,WeatherDisplay:10.37,2013-02-20 08:05:00,
2013-02-20 02:10:00,9.4,3.6,30.29,West,276,10.4,10.4,77,0.00,CLR,,0.00,0.0,WeatherDisplay:10.37,2013-02-20 08:10:00,
2013-02-20 02:15:00,9.4,3.6,30.29,WNW,300,10.4,10.4,77,0.00,CLR,,0.00,0.0,WeatherDisplay:10.37,2013-02-20 08:15:00,
2013-02-20 02:20:00,9.3,3.5,30.29,West,261,12.0,12.0,77,0.00,CLR,,0.00,0.0,WeatherDisplay:10.37,2013-02-20 08:20:00,
2013-02-20 02:26:00,9.3,3.8,30.29,WNW,299,6.9,6.9,78,0.00,CLR,,0.00,0.0,WeatherDisplay:10.37,2013-02-20 08:26:00,
2013-02-20 02:31:00,9.3,3.8,30.29,NW,306,9.2,9.2,78,0.00,CLR,,0.00,0.0,WeatherDisplay:10.37,2013-02-20 08:31:00,
2013-02-20 02:36:00,9.2,3.7,30.30,West,281,11.5,11.5,78,0.00,CLR,,0.00,0.0,WeatherDisplay:10.37,2013-02-20 08:36:00,
2013-02-20 02:41:00,9.1,3.6,30.30,WNW,303,9.2,9.2,78,0.00,CLR,,0.00,0.0,WeatherDisplay:10.37,2013-02-20 08:41:00,
2013-02-20 02:46:00,9.0,3.5,30.30,NW,313,11.5,11.5,78,0.00,CLR,,0.00,0.0,WeatherDisplay:10.37,2013-02-20 08:46:00,
2013-02-20 02:51:00,9.0,3.3,30.30,NW,313,16.1,16.1,77,0.00,CLR,,0.00,0.0,WeatherDisplay:10.37,2013-02-20 08:51:00,
2013-02-20 02:56:00,9.0,3.5,30.31,NW,306,9.0,9.0,78,0.00,CLR,,0.00,0.0,WeatherDisplay:10.37,2013-02-20 08:56:00,
2013-02-20 03:01:00,9.0,3.5,30.31,WNW,302,13.8,13.8,78,0.00,CLR,,0.00,0.0,WeatherDisplay:10.37,2013-02-20 09:01:00,
2013-02-20 03:06:00,8.9,3.2,30.31,NW,310,10.4,10.4,77,0.00,CLR,,0.00,0.0,WeatherDisplay:10.37,2013-02-20 09:06:00,
2013-02-20 03:11:00,8.9,3.2,30.31,NNW,333,11.5,11.5,77,0.00,CLR,,0.00,0.0,WeatherDisplay:10.37,2013-02-20 09:11:00,
2013-02-20 03:16:00,8.9,3.4,30.31,WNW,292,8.1,8.1,78,0.00,CLR,,0.00,0.0,WeatherDisplay:10.37,2013-02-20 09:16:00,
2013-02-20 03:21:00,8.7,3.2,30.31,WNW,284,11.0,11.0,78,0.00,CLR,,0.00,0.0,WeatherDisplay:10.37,2013-02-20 09:21:00,
2013-02-20 03:26:00,8.7,3.0,30.31,WNW,290,17.3,17.3,77,0.00,CLR,,0.00,0.0,WeatherDisplay:10.37,2013-02-20 09:26:00,
2013-02-20 03:31:00,8.6,2.9,30.31,NW,309,9.2,9.2,77,0.00,CLR,,0.00,0.0,WeatherDisplay:10.37,2013-02-20 09:31:00,
2013-02-20 03:36:00,8.5,2.8,30.31,WNW,295,13.8,13.8,77,0.00,CLR,,0.00,0.0,WeatherDisplay:10.37,2013-02-20 09:36:00,
2013-02-20 03:41:00,8.6,2.9,30.31,WNW,296,13.8,13.8,77,0.00,CLR,,0.00,0.0,WeatherDisplay:10.37,2013-02-20 09:41:00,
2013-02-20 03:46:00,8.6,2.9,30.31,WNW,296,13.0,13.0,77,0.00,CLR,,0.00,0.0,WeatherDisplay:10.37,2013-02-20 09:46:00,
2013-02-20 03:51:00,8.5,2.8,30.31,WNW,302,13.8,13.8,77,0.00,CLR,,0.00,0.0,WeatherDisplay:10.37,2013-02-20 09:51:00,
2013-02-20 03:56:00,8.5,2.8,30.31,NW,308,11.5,11.5,77,0.00,CLR,,0.00,0.0,WeatherDisplay:10.37,2013-02-20 09:56:00,
2013-02-20 04:01:00,8.5,3.0,30.31,NW,309,12.7,12.7,78,0.00,CLR,,0.00,0.0,WeatherDisplay:10.37,2013-02-20 10:01:00,
2013-02-20 04:06:00,8.4,2.9,30.32,NW,307,11.5,11.5,78,0.00,CLR,,0.00,0.0,WeatherDisplay:10.37,2013-02-20 10:06:00,
2013-02-20 04:11:00,8.3,2.9,30.32,NW,306,12.7,12.7,78,0.00,CLR,,0.00,0.0,WeatherDisplay:10.37,2013-02-20 10:11:00,
2013-02-20 04:16:00,8.2,2.5,30.32,NW,311,11.5,11.5,77,0.00,CLR,,0.00,0.0,WeatherDisplay:10.37,2013-02-20 10:16:00,
2013-02-20 04:21:00,8.2,2.5,30.32,WNW,298,12.7,12.7,77,0.00,CLR,,0.00,0.0,WeatherDisplay:10.37,2013-02-20 10:21:00,
2013-02-20 04:26:00,8.2,2.5,30.32,NW,306,11.5,11.5,77,0.00,CLR,,0.00,0.0,WeatherDisplay:10.37,2013-02-20 10:26:00,
2013-02-20 04:31:00,8.2,2.2,30.32,WNW,290,16.1,16.1,76,0.00,CLR,,0.00,0.0,WeatherDisplay:10.37,2013-02-20 10:31:00,
2013-02-20 04:36:00,8.2,2.2,30.33,West,273,14.0,14.0,76,0.00,CLR,,0.00,0.0,WeatherDisplay:10.37,2013-02-20 10:36:00,
2013-02-20 04:41:00,8.2,2.5,30.33,North,355,11.5,11.5,77,0.00,CLR,,0.00,0.0,WeatherDisplay:10.37,2013-02-20 10:41:00,
2013-02-20 04:46:00,8.1,2.4,30.33,NW,308,11.5,11.5,77,0.00,CLR,,0.00,0.0,WeatherDisplay:10.37,2013-02-20 10:46:00,
2013-02-20 04:51:00,8.1,2.4,30.33,NW,312,13.8,13.8,77,0.00,CLR,,0.00,0.0,WeatherDisplay:10.37,2013-02-20 10:51:00,
2013-02-20 04:56:00,8.1,2.1,30.33,NW,304,13.8,13.8,76,0.00,CLR,,0.00,0.0,WeatherDisplay:10.37,2013-02-20 10:56:00,
2013-02-20 05:01:00,8.0,2.3,30.33,WNW,296,13.8,13.8,77,0.00,CLR,,0.00,0.0,WeatherDisplay:10.37,2013-02-20 11:01:00,
2013-02-20 05:06:00,7.9,1.9,30.33,WNW,286,13.8,13.8,76,0.00,CLR,,0.00,0.0,WeatherDisplay:10.37,2013-02-20 11:06:00,
2013-02-20 05:11:00,7.8,2.1,30.33,NW,305,17.3,17.3,77,0.00,CLR,,0.00,0.0,WeatherDisplay:10.37,2013-02-20 11:11:00,
2013-02-20 05:16:00,7.7,2.0,30.33,NW,312,12.7,12.7,77,0.00,CLR,,0.00,0.0,WeatherDisplay:10.37,2013-02-20 11:16:00,
2013-02-20 05:21:00,7.7,2.0,30.33,WNW,286,10.4,10.4,77,0.00,CLR,,0.00,0.0,WeatherDisplay:10.37,2013-02-20 11:21:00,
2013-02-20 05:26:00,7.6,1.9,30.33,WNW,292,11.5,11.5,77,0.00,CLR,,0.00,0.0,WeatherDisplay:10.37,2013-02-20 11:26:00,
2013-02-20 05:31:00,7.6,1.9,30.33,WNW,290,13.8,13.8,77,0.00,CLR,,0.00,0.0,WeatherDisplay:10.37,2013-02-20 11:31:00,
2013-02-20 05:36:00,7.5,1.8,30.33,WNW,291,15.0,15.0,77,0.00,CLR,,0.00,0.0,WeatherDisplay:10.37,2013-02-20 11:36:00,
2013-02-20 05:41:00,7.5,2.1,30.33,NW,313,12.7,12.7,78,0.00,CLR,,0.00,0.0,WeatherDisplay:10.37,2013-02-20 11:41:00,
2013-02-20 05:46:00,7.4,2.0,30.33,NW,305,13.8,13.8,78,0.00,CLR,,0.00,0.0,WeatherDisplay:10.37,2013-02-20 11:46:00,
2013-02-20 05:51:00,7.4,2.0,30.33,NW,312,12.7,12.7,78,0.00,CLR,,0.00,0.0,WeatherDisplay:10.37,2013-02-20 11:51:00,
2013-02-20 05:56:00,7.3,1.9,30.33,NW,305,11.5,11.5,78,0.00,CLR,,0.00,0.0,WeatherDisplay:10.37,2013-02-20 11:56:00,
2013-02-20 06:01:00,7.3,1.9,30.33,NW,311,11.5,11.5,78,0.00,CLR,,0.00,0.0,WeatherDisplay:10.37,2013-02-20 12:01:00,
2013-02-20 06:06:00,7.3,2.2,30.33,NW,310,12.7,12.7,79,0.00,CLR,,0.00,0.0,WeatherDisplay:10.37,2013-02-20 12:06:00,
2013-02-20 06:11:00,7.3,1.9,30.33,WNW,303,10.4,10.4,78,0.00,CLR,,0.00,0.0,WeatherDisplay:10.37,2013-02-20 12:11:00,
2013-02-20 06:16:00,7.3,1.9,30.34,WNW,298,13.8,13.8,78,0.00,CLR,,0.00,0.0,WeatherDisplay:10.37,2013-02-20 12:16:00,
2013-02-20 06:21:00,7.3,2.2,30.33,NW,309,11.5,11.5,79,0.00,CLR,,0.00,0.0,WeatherDisplay:10.37,2013-02-20 12:21:00,
2013-02-20 06:26:00,7.3,1.9,30.33,NW,315,15.0,15.0,78,0.00,CLR,,0.00,0.0,WeatherDisplay:10.37,2013-02-20 12:26:00,
2013-02-20 06:31:00,7.3,1.9,30.33,NNW,329,12.7,12.7,78,0.00,CLR,,0.00,0.0,WeatherDisplay:10.37,2013-02-20 12:31:00,
2013-02-20 06:36:00,7.3,1.9,30.34,WNW,302,12.7,12.7,78,0.00,CLR,,0.00,0.0,WeatherDisplay:10.37,2013-02-20 12:36:00,
2013-02-20 06:41:00,7.4,1.7,30.34,WNW,296,13.0,13.0,77,0.00,CLR,,0.00,5.0,WeatherDisplay:10.37,2013-02-20 12:41:00,
2013-02-20 06:46:00,7.4,2.0,30.34,NNW,328,12.0,12.0,78,0.00,CLR,,0.00,9.0,WeatherDisplay:10.37,2013-02-20 12:46:00,
2013-02-20 06:51:00,7.5,1.8,30.35,NW,310,11.5,11.5,77,0.00,CLR,,0.00,11.0,WeatherDisplay:10.37,2013-02-20 12:51:00,
2013-02-20 06:56:00,7.6,1.9,30.35,NW,312,11.0,11.0,77,0.00,CLR,,0.00,12.0,WeatherDisplay:10.37,2013-02-20 12:56:00,
2013-02-20 07:01:00,7.7,2.0,30.35,WNW,303,11.5,11.5,77,0.00,CLR,,0.00,16.0,WeatherDisplay:10.37,2013-02-20 13:01:00,
2013-02-20 07:06:00,7.8,2.1,30.35,NW,309,11.5,11.5,77,0.00,CLR,,0.00,25.0,WeatherDisplay:10.37,2013-02-20 13:06:00,
2013-02-20 07:11:00,8.0,2.3,30.35,WNW,293,9.2,9.2,77,0.00,CLR,,0.00,35.0,WeatherDisplay:10.37,2013-02-20 13:11:00,
2013-02-20 07:16:00,8.2,2.5,30.36,NW,323,6.9,6.9,77,0.00,CLR,,0.00,47.0,WeatherDisplay:10.37,2013-02-20 13:16:00,
2013-02-20 07:21:00,8.3,2.3,30.35,NW,309,9.2,9.2,76,0.00,CLR,,0.00,62.0,WeatherDisplay:10.37,2013-02-20 13:21:00,
2013-02-20 07:26:00,8.5,2.5,30.35,WNW,299,13.8,13.8,76,0.00,CLR,,0.00,77.0,WeatherDisplay:10.37,2013-02-20 13:26:00,
2013-02-20 07:31:00,8.7,2.7,30.35,West,271,11.0,11.0,76,0.00,CLR,,0.00,91.0,WeatherDisplay:10.37,2013-02-20 13:31:00,
2013-02-20 07:36:00,8.9,2.6,30.35,WNW,301,11.5,11.5,75,0.00,CLR,,0.00,109.0,WeatherDisplay:10.37,2013-02-20 13:36:00,
2013-02-20 07:41:00,9.0,2.7,30.35,WNW,283,12.7,12.7,75,0.00,CLR,,0.00,128.0,WeatherDisplay:10.37,2013-02-20 13:41:00,
2013-02-20 07:47:00,9.2,2.9,30.36,WNW,286,15.0,15.0,75,0.00,CLR,,0.00,148.0,WeatherDisplay:10.37,2013-02-20 13:47:00,
2013-02-20 07:52:00,9.6,3.3,30.36,WNW,299,13.8,13.8,75,0.00,CLR,,0.00,167.0,WeatherDisplay:10.37,2013-02-20 13:52:00,
2013-02-20 07:57:00,9.8,3.5,30.36,NW,314,10.4,10.4,75,0.00,CLR,,0.00,188.0,WeatherDisplay:10.37,2013-02-20 13:57:00,
2013-02-20 08:02:00,10.1,3.5,30.36,NW,308,12.7,12.7,74,0.00,CLR,,0.00,207.0,WeatherDisplay:10.37,2013-02-20 14:02:00,
2013-02-20 08:07:00,10.3,3.7,30.36,WNW,302,11.5,11.5,74,0.00,CLR,,0.00,229.0,WeatherDisplay:10.37,2013-02-20 14:07:00,
2013-02-20 08:12:00,10.5,3.8,30.36,NW,315,12.7,12.7,74,0.00,CLR,,0.00,239.0,WeatherDisplay:10.37,2013-02-20 14:12:00,
2013-02-20 08:17:00,10.8,4.1,30.36,NNW,327,11.5,11.5,74,0.00,CLR,,0.00,262.0,WeatherDisplay:10.37,2013-02-20 14:17:00,
2013-02-20 08:22:00,11.2,4.2,30.36,NW,325,15.0,15.0,73,0.00,CLR,,0.00,279.0,WeatherDisplay:10.37,2013-02-20 14:22:00,
2013-02-20 08:27:00,11.3,4.3,30.36,NW,312,13.0,13.0,73,0.00,CLR,,0.00,295.0,WeatherDisplay:10.37,2013-02-20 14:27:00,
2013-02-20 08:32:00,11.6,4.6,30.36,NW,315,15.0,15.0,73,0.00,CLR,,0.00,309.0,WeatherDisplay:10.37,2013-02-20 14:32:00,
2013-02-20 08:37:00,11.7,4.4,30.36,NNW,331,11.5,11.5,72,0.00,CLR,,0.00,327.0,WeatherDisplay:10.37,2013-02-20 14:37:00,
2013-02-20 08:42:00,11.7,4.1,30.36,NW,308,12.7,12.7,71,0.00,CLR,,0.00,341.0,WeatherDisplay:10.37,2013-02-20 14:42:00,
2013-02-20 08:47:00,11.9,4.6,30.37,NW,326,12.7,12.7,72,0.00,CLR,,0.00,353.0,WeatherDisplay:10.37,2013-02-20 14:47:00,
2013-02-20 08:52:00,12.2,4.6,30.38,NW,306,10.4,11.9,71,0.00,CLR,,0.00,366.0,WeatherDisplay:10.37,2013-02-20 14:52:00,
2013-02-20 08:57:00,12.6,5.3,30.38,NW,309,11.5,11.5,72,0.00,CLR,,0.00,380.0,WeatherDisplay:10.37,2013-02-20 14:57:00,
2013-02-20 09:02:00,12.8,4.9,30.38,NW,313,12.7,12.7,70,0.00,CLR,,0.00,396.0,WeatherDisplay:10.37,2013-02-20 15:02:00,
2013-02-20 09:07:00,12.8,5.2,30.38,NW,315,11.5,11.5,71,0.00,CLR,,0.00,408.0,WeatherDisplay:10.37,2013-02-20 15:07:00,
2013-02-20 09:12:00,13.4,5.7,30.38,WNW,294,11.5,11.5,71,0.00,CLR,,0.00,422.0,WeatherDisplay:10.37,2013-02-20 15:12:00,
2013-02-20 09:17:00,13.5,5.5,30.38,WNW,295,13.8,13.8,70,0.00,CLR,,0.00,434.0,WeatherDisplay:10.37,2013-02-20 15:17:00,
2013-02-20 09:22:00,13.6,5.9,30.38,NW,316,16.1,16.1,71,0.00,CLR,,0.00,448.0,WeatherDisplay:10.37,2013-02-20 15:22:00,
2013-02-20 09:27:00,13.7,5.7,30.37,NW,304,15.0,15.0,70,0.00,CLR,,0.00,457.0,WeatherDisplay:10.37,2013-02-20 15:27:00,
2013-02-20 09:32:00,14.1,6.1,30.37,NW,323,11.5,11.5,70,0.00,CLR,,0.00,469.0,WeatherDisplay:10.37,2013-02-20 15:32:00,
2013-02-20 09:37:00,14.6,6.6,30.37,NW,321,13.8,13.8,70,0.00,CLR,,0.00,482.0,WeatherDisplay:10.37,2013-02-20 15:37:00,
2013-02-20 09:42:00,14.6,6.3,30.37,WNW,283,11.5,11.5,69,0.00,CLR,,0.00,494.0,WeatherDisplay:10.37,2013-02-20 15:42:00,
2013-02-20 09:47:00,14.9,6.6,30.38,NNW,328,11.5,11.5,69,0.00,CLR,,0.00,504.0,WeatherDisplay:10.37,2013-02-20 15:47:00,
2013-02-20 09:52:00,15.3,7.3,30.38,NNW,328,12.7,12.7,70,0.00,CLR,,0.00,515.0,WeatherDisplay:10.37,2013-02-20 15:52:00,
2013-02-20 09:57:00,15.3,6.6,30.38,NW,309,8.1,8.1,68,0.00,CLR,,0.00,527.0,WeatherDisplay:10.37,2013-02-20 15:57:00,
2013-02-20 10:02:00,15.6,7.2,30.39,NW,325,11.5,11.5,69,0.00,CLR,,0.00,536.0,WeatherDisplay:10.37,2013-02-20 16:02:00,
2013-02-20 10:07:00,16.0,7.6,30.39,NW,310,12.7,12.7,69,0.00,CLR,,0.00,545.0,WeatherDisplay:10.37,2013-02-20 16:07:00,
2013-02-20 10:12:00,16.0,7.3,30.39,NNW,327,12.7,12.7,68,0.00,CLR,,0.00,554.0,WeatherDisplay:10.37,2013-02-20 16:12:00,
2013-02-20 10:17:00,16.4,7.7,30.39,NNW,339,12.7,12.7,68,0.00,CLR,,0.00,563.0,WeatherDisplay:10.37,2013-02-20 16:17:00,
2013-02-20 10:22:00,16.6,8.2,30.39,WNW,303,10.4,10.4,69,0.00,CLR,,0.00,571.0,WeatherDisplay:10.37,2013-02-20 16:22:00,
2013-02-20 10:27:00,17.0,8.6,30.39,NW,315,10.4,10.4,69,0.00,CLR,,0.00,577.0,WeatherDisplay:10.37,2013-02-20 16:27:00,
2013-02-20 10:32:00,17.2,8.4,30.39,West,259,10.4,10.4,68,0.00,CLR,,0.00,589.0,WeatherDisplay:10.37,2013-02-20 16:32:00,
2013-02-20 10:37:00,17.4,9.0,30.39,WNW,292,12.7,12.7,69,0.00,CLR,,0.00,596.0,WeatherDisplay:10.37,2013-02-20 16:37:00,
2013-02-20 10:42:00,17.5,9.1,30.38,NW,308,11.5,11.5,69,0.00,CLR,,0.00,603.0,WeatherDisplay:10.37,2013-02-20 16:42:00,
2013-02-20 10:47:00,17.8,9.0,30.39,WNW,282,9.2,9.2,68,0.00,CLR,,0.00,608.0,WeatherDisplay:10.37,2013-02-20 16:47:00,
2013-02-20 10:52:00,17.6,8.5,30.39,WNW,282,11.5,11.5,67,0.00,CLR,,0.00,613.0,WeatherDisplay:10.37,2013-02-20 16:52:00,
2013-02-20 10:57:00,17.7,9.2,30.39,NW,312,10.4,10.4,69,0.00,CLR,,0.00,619.0,WeatherDisplay:10.37,2013-02-20 16:57:00,
2013-02-20 11:02:00,18.0,9.2,30.39,NW,321,9.2,9.2,68,0.00,CLR,,0.00,628.0,WeatherDisplay:10.37,2013-02-20 17:02:00,
2013-02-20 11:07:00,18.5,10.0,30.39,NW,315,9.0,9.0,69,0.00,CLR,,0.00,631.0,WeatherDisplay:10.37,2013-02-20 17:07:00,
2013-02-20 11:12:00,18.5,9.4,30.39,WSW,255,11.5,11.5,67,0.00,CLR,,0.00,638.0,WeatherDisplay:10.37,2013-02-20 17:12:00,
2013-02-20 11:17:00,18.5,9.7,30.38,NW,315,10.4,10.4,68,0.00,CLR,,0.00,640.0,WeatherDisplay:10.37,2013-02-20 17:17:00,
2013-02-20 11:22:00,18.9,10.4,30.38,NW,326,13.8,13.8,69,0.00,CLR,,0.00,640.0,WeatherDisplay:10.37,2013-02-20 17:22:00,
2013-02-20 11:27:00,19.1,10.6,30.39,West,272,9.2,9.2,69,0.00,CLR,,0.00,643.0,WeatherDisplay:10.37,2013-02-20 17:27:00,
2013-02-20 11:32:00,19.3,10.8,30.38,West,270,10.4,10.4,69,0.00,CLR,,0.00,642.0,WeatherDisplay:10.37,2013-02-20 17:32:00,
2013-02-20 11:37:00,19.0,9.5,30.38,WNW,302,11.5,11.5,66,0.00,CLR,,0.00,654.0,WeatherDisplay:10.37,2013-02-20 17:37:00,
2013-02-20 11:42:00,19.4,10.6,30.38,WNW,303,11.5,11.5,68,0.00,CLR,,0.00,656.0,WeatherDisplay:10.37,2013-02-20 17:42:00,
2013-02-20 11:47:00,19.8,11.3,30.38,NW,304,11.5,11.5,69,0.00,CLR,,0.00,657.0,WeatherDisplay:10.37,2013-02-20 17:47:00,
2013-02-20 11:52:00,20.0,10.8,30.38,WNW,292,7.0,7.0,67,0.00,CLR,,0.00,656.0,WeatherDisplay:10.37,2013-02-20 17:52:00,
2013-02-20 11:57:00,20.2,11.3,30.38,NW,323,10.4,10.4,68,0.00,CLR,,0.00,661.0,WeatherDisplay:10.37,2013-02-20 17:57:00,
2013-02-20 12:02:00,20.2,11.3,30.38,WSW,239,11.5,11.5,68,0.00,CLR,,0.00,657.0,WeatherDisplay:10.37,2013-02-20 18:02:00,
2013-02-20 12:07:00,20.4,11.5,30.38,NW,323,11.5,11.5,68,0.00,CLR,,0.00,657.0,WeatherDisplay:10.37,2013-02-20 18:07:00,
2013-02-20 12:12:00,20.7,12.1,30.39,West,267,8.1,8.1,69,0.00,CLR,,0.00,657.0,WeatherDisplay:10.37,2013-02-20 18:12:00,
2013-02-20 12:17:00,21.0,12.7,30.38,NW,314,12.7,12.7,70,0.00,CLR,,0.00,657.0,WeatherDisplay:10.37,2013-02-20 18:17:00,
2013-02-20 12:22:00,21.1,12.5,30.38,WNW,300,10.4,10.4,69,0.00,CLR,,0.00,656.0,WeatherDisplay:10.37,2013-02-20 18:22:00,
2013-02-20 12:27:00,21.1,11.5,30.39,WSW,240,11.5,11.5,66,0.00,CLR,,0.00,654.0,WeatherDisplay:10.37,2013-02-20 18:27:00,
2013-02-20 12:32:00,21.7,13.1,30.39,NW,311,10.4,10.4,69,0.00,CLR,,0.00,664.0,WeatherDisplay:10.37,2013-02-20 18:32:00,
2013-02-20 12:37:00,22.1,12.8,30.39,WNW,290,11.5,11.5,67,0.00,CLR,,0.00,666.0,WeatherDisplay:10.37,2013-02-20 18:37:00,
2013-02-20 12:42:00,21.8,12.2,30.40,NW,309,11.5,11.5,66,0.00,CLR,,0.00,647.0,WeatherDisplay:10.37,2013-02-20 18:42:00,
2013-02-20 12:47:00,21.8,12.5,30.40,WSW,242,11.0,11.0,67,0.00,CLR,,0.00,654.0,WeatherDisplay:10.37,2013-02-20 18:47:00,
2013-02-20 12:52:00,21.9,12.6,30.40,West,265,9.2,9.2,67,0.00,CLR,,0.00,638.0,WeatherDisplay:10.37,2013-02-20 18:52:00,
2013-02-20 12:57:00,22.1,12.8,30.41,West,276,12.7,12.7,67,0.00,CLR,,0.00,638.0,WeatherDisplay:10.37,2013-02-20 18:57:00,
2013-02-20 13:02:00,22.5,13.5,30.41,WNW,298,8.0,8.0,68,0.00,CLR,,0.00,631.0,WeatherDisplay:10.37,2013-02-20 19:02:00,
2013-02-20 13:08:00,23.0,14.0,30.41,NW,305,11.5,11.5,68,0.00,CLR,,0.00,626.0,WeatherDisplay:10.37,2013-02-20 19:08:00,
2013-02-20 13:13:00,22.8,12.8,30.40,West,273,11.5,11.5,65,0.00,CLR,,0.00,619.0,WeatherDisplay:10.37,2013-02-20 19:13:00,
2013-02-20 13:18:00,23.0,13.7,30.40,West,276,12.7,12.7,67,0.00,CLR,,0.00,615.0,WeatherDisplay:10.37,2013-02-20 19:18:00,
2013-02-20 13:23:00,23.5,14.8,30.40,NW,317,11.5,11.5,69,0.00,CLR,,0.00,605.0,WeatherDisplay:10.37,2013-02-20 19:23:00,
2013-02-20 13:28:00,23.8,14.8,30.40,West,280,9.0,9.0,68,0.00,CLR,,0.00,603.0,WeatherDisplay:10.37,2013-02-20 19:28:00,
2013-02-20 13:33:00,23.8,14.1,30.39,NW,323,12.7,12.7,66,0.00,CLR,,0.00,592.0,WeatherDisplay:10.37,2013-02-20 19:33:00,
2013-02-20 13:38:00,23.6,13.9,30.39,NW,306,10.4,10.4,66,0.00,CLR,,0.00,578.0,WeatherDisplay:10.37,2013-02-20 19:38:00,
2013-02-20 13:43:00,23.7,14.7,30.39,NW,321,12.7,12.7,68,0.00,CLR,,0.00,575.0,WeatherDisplay:10.37,2013-02-20 19:43:00,
2013-02-20 13:48:00,23.9,14.5,30.39,NW,304,15.0,15.0,67,0.00,CLR,,0.00,570.0,WeatherDisplay:10.37,2013-02-20 19:48:00,
2013-02-20 13:53:00,24.0,14.6,30.39,NNW,342,8.1,8.1,67,0.00,CLR,,0.00,547.0,WeatherDisplay:10.37,2013-02-20 19:53:00,
2013-02-20 13:58:00,24.2,14.8,30.38,NW,323,13.0,13.0,67,0.00,CLR,,0.00,529.0,WeatherDisplay:10.37,2013-02-20 19:58:00,
2013-02-20 14:03:00,24.0,14.6,30.38,NW,308,12.0,12.0,67,0.00,CLR,,0.00,527.0,WeatherDisplay:10.37,2013-02-20 20:03:00,
2013-02-20 14:08:00,23.8,14.4,30.38,WNW,291,13.0,13.0,67,0.00,CLR,,0.00,512.0,WeatherDisplay:10.37,2013-02-20 20:08:00,
2013-02-20 14:13:00,23.9,14.5,30.38,NW,310,17.3,17.3,67,0.00,CLR,,0.00,499.0,WeatherDisplay:10.37,2013-02-20 20:13:00,
2013-02-20 14:18:00,24.0,15.0,30.37,NW,304,15.0,15.0,68,0.00,CLR,,0.00,473.0,WeatherDisplay:10.37,2013-02-20 20:18:00,
2013-02-20 14:23:00,24.1,15.7,30.38,NW,319,12.0,12.0,70,0.00,CLR,,0.00,459.0,WeatherDisplay:10.37,2013-02-20 20:23:00,
2013-02-20 14:28:00,24.2,15.5,30.38,NW,313,16.1,16.1,69,0.00,CLR,,0.00,445.0,WeatherDisplay:10.37,2013-02-20 20:28:00,
2013-02-20 14:33:00,23.9,15.2,30.37,NW,310,12.7,12.7,69,0.00,CLR,,0.00,439.0,WeatherDisplay:10.37,2013-02-20 20:33:00,
2013-02-20 14:38:00,24.1,15.4,30.37,WNW,303,15.0,15.0,69,0.00,CLR,,0.00,401.0,WeatherDisplay:10.37,2013-02-20 20:38:00,
2013-02-20 14:43:00,24.0,15.0,30.37,WNW,283,12.0,12.0,68,0.00,CLR,,0.00,394.0,WeatherDisplay:10.37,2013-02-20 20:43:00,
2013-02-20 14:48:00,23.9,15.2,30.37,NNW,329,12.7,12.7,69,0.00,CLR,,0.00,431.0,WeatherDisplay:10.37,2013-02-20 20:48:00,
2013-02-20 14:53:00,24.2,16.1,30.37,NW,306,12.7,12.7,71,0.00,CLR,,0.00,390.0,WeatherDisplay:10.37,2013-02-20 20:53:00,
2013-02-20 14:58:00,24.3,16.2,30.37,NW,313,15.0,15.0,71,0.00,CLR,,0.00,283.0,WeatherDisplay:10.37,2013-02-20 20:58:00,
2013-02-20 15:03:00,24.2,15.8,30.37,WNW,294,12.7,12.7,70,0.00,CLR,,0.00,385.0,WeatherDisplay:10.37,2013-02-20 21:03:00,
2013-02-20 15:08:00,23.9,15.2,30.36,NW,309,13.8,13.8,69,0.00,CLR,,0.00,346.0,WeatherDisplay:10.37,2013-02-20 21:08:00,
2013-02-20 15:13:00,24.0,16.0,30.37,NNW,328,14.0,14.0,71,0.00,CLR,,0.00,359.0,WeatherDisplay:10.37,2013-02-20 21:13:00,
2013-02-20 15:18:00,24.3,16.2,30.36,WNW,296,11.5,11.5,71,0.00,CLR,,0.00,343.0,WeatherDisplay:10.37,2013-02-20 21:18:00,
2013-02-20 15:23:00,24.2,16.1,30.36,WNW,290,11.5,11.5,71,0.00,CLR,,0.00,339.0,WeatherDisplay:10.37,2013-02-20 21:23:00,
2013-02-20 15:28:00,24.3,16.6,30.36,NNW,338,11.5,11.5,72,0.00,CLR,,0.00,366.0,WeatherDisplay:10.37,2013-02-20 21:28:00,
2013-02-20 15:33:00,24.3,16.6,30.36,NW,310,11.5,11.5,72,0.00,CLR,,0.00,158.0,WeatherDisplay:10.37,2013-02-20 21:33:00,
2013-02-20 15:38:00,24.0,16.3,30.37,NW,325,10.4,10.4,72,0.00,CLR,,0.00,127.0,WeatherDisplay:10.37,2013-02-20 21:38:00,
2013-02-20 15:43:00,24.2,16.8,30.37,NNW,331,12.7,12.7,73,0.00,CLR,,0.00,230.0,WeatherDisplay:10.37,2013-02-20 21:43:00,
2013-02-20 15:48:00,24.0,16.3,30.36,NNW,332,15.0,15.0,72,0.00,CLR,,0.00,156.0,WeatherDisplay:10.37,2013-02-20 21:48:00,
2013-02-20 15:53:00,23.6,16.2,30.36,NW,315,16.1,16.1,73,0.00,CLR,,0.00,158.0,WeatherDisplay:10.37,2013-02-20 21:53:00,
2013-02-20 15:58:00,23.3,15.6,30.37,NW,314,12.7,12.7,72,0.00,CLR,,0.00,155.0,WeatherDisplay:10.37,2013-02-20 21:58:00,
2013-02-20 16:03:00,23.1,15.7,30.37,NW,322,11.5,11.5,73,0.00,CLR,,0.00,134.0,WeatherDisplay:10.37,2013-02-20 22:03:00,
2013-02-20 16:08:00,23.0,15.3,30.37,NNW,337,10.4,10.4,72,0.00,CLR,,0.00,116.0,WeatherDisplay:10.37,2013-02-20 22:08:00,
2013-02-20 16:13:00,23.1,15.7,30.36,NW,313,11.5,11.5,73,0.00,CLR,,0.00,111.0,WeatherDisplay:10.37,2013-02-20 22:13:00,
2013-02-20 16:18:00,23.0,15.6,30.36,NW,311,10.4,10.4,73,0.00,CLR,,0.00,97.0,WeatherDisplay:10.37,2013-02-20 22:18:00,
2013-02-20 16:23:00,22.8,15.4,30.37,NW,317,11.5,11.5,73,0.00,CLR,,0.00,83.0,WeatherDisplay:10.37,2013-02-20 22:23:00,
2013-02-20 16:28:00,22.7,15.7,30.37,NNW,328,11.5,11.5,74,0.00,CLR,,0.00,74.0,WeatherDisplay:10.37,2013-02-20 22:28:00,
2013-02-20 16:33:00,22.7,15.3,30.37,NW,321,10.4,10.4,73,0.00,SCT,,0.00,69.0,WeatherDisplay:10.37,2013-02-20 22:33:00,
2013-02-20 16:38:00,22.7,15.7,30.37,NW,323,8.1,8.1,74,0.00,SCT,,0.00,62.0,WeatherDisplay:10.37,2013-02-20 22:38:00,
2013-02-20 16:43:00,22.7,15.7,30.37,NNW,334,7.0,7.0,74,0.00,SCT,,0.00,54.0,WeatherDisplay:10.37,2013-02-20 22:43:00,
2013-02-20 16:48:00,22.7,15.7,30.37,NW,321,8.0,8.0,74,0.00,CLR,,0.00,49.0,WeatherDisplay:10.37,2013-02-20 22:48:00,
2013-02-20 16:53:00,22.5,15.5,30.37,NW,318,9.2,9.2,74,0.00,CLR,,0.00,44.0,WeatherDisplay:10.37,2013-02-20 22:53:00,
2013-02-20 16:58:00,22.5,15.5,30.38,NW,319,10.4,10.4,74,0.00,CLR,,0.00,35.0,WeatherDisplay:10.37,2013-02-20 22:58:00,
2013-02-20 17:03:00,22.3,15.6,30.38,NNW,333,10.4,10.4,75,0.00,CLR,,0.00,30.0,WeatherDisplay:10.37,2013-02-20 23:03:00,
2013-02-20 17:08:00,22.2,15.5,30.38,NNW,347,9.0,9.0,75,0.00,CLR,,0.00,23.0,WeatherDisplay:10.37,2013-02-20 23:08:00,
2013-02-20 17:13:00,22.2,15.5,30.38,NW,315,9.2,9.2,75,0.00,CLR,,0.00,16.0,WeatherDisplay:10.37,2013-02-20 23:13:00,
2013-02-20 17:18:00,22.0,15.6,30.38,WNW,301,8.1,8.1,76,0.00,CLR,,0.00,11.0,WeatherDisplay:10.37,2013-02-20 23:18:00,
2013-02-20 17:23:00,22.0,15.6,30.38,NW,313,9.2,9.2,76,0.00,CLR,,0.00,7.0,WeatherDisplay:10.37,2013-02-20 23:23:00,
2013-02-20 17:28:00,21.8,15.4,30.38,NW,313,8.1,8.1,76,0.00,CLR,,0.00,0.0,WeatherDisplay:10.37,2013-02-20 23:28:00,
2013-02-20 17:33:00,21.7,15.3,30.38,NW,313,5.8,5.8,76,0.00,CLR,,0.00,0.0,WeatherDisplay:10.37,2013-02-20 23:33:00,
2013-02-20 17:38:00,21.6,15.2,30.38,NW,312,7.0,7.0,76,0.00,CLR,,0.00,0.0,WeatherDisplay:10.37,2013-02-20 23:38:00,
2013-02-20 17:43:00,21.5,15.1,30.39,NW,317,8.1,8.1,76,0.00,CLR,,0.00,0.0,WeatherDisplay:10.37,2013-02-20 23:43:00,
2013-02-20 17:48:00,21.5,15.4,30.38,NW,323,5.8,5.8,77,0.00,CLR,,0.00,0.0,WeatherDisplay:10.37,2013-02-20 23:48:00,
2013-02-20 17:53:00,21.4,15.3,30.38,NW,320,5.8,5.8,77,0.00,CLR,,0.00,0.0,WeatherDisplay:10.37,2013-02-20 23:53:00,
2013-02-20 17:58:00,21.3,15.2,30.39,NW,313,5.8,5.9,77,0.00,CLR,,0.00,0.0,WeatherDisplay:10.37,2013-02-20 23:58:00,
2013-02-20 18:03:00,21.2,15.4,30.39,NW,309,6.9,6.9,78,0.00,CLR,,0.00,0.0,WeatherDisplay:10.37,2013-02-21 00:03:00,
2013-02-20 18:08:00,21.1,15.6,30.39,WNW,302,5.8,5.8,79,0.00,CLR,,0.00,0.0,WeatherDisplay:10.37,2013-02-21 00:08:00,
2013-02-20 18:13:00,20.9,15.4,30.39,NW,312,5.8,5.8,79,0.00,CLR,,0.00,0.0,WeatherDisplay:10.37,2013-02-21 00:13:00,
2013-02-20 18:18:00,20.8,15.6,30.39,NW,321,5.0,5.0,80,0.00,CLR,,0.00,0.0,WeatherDisplay:10.37,2013-02-21 00:18:00,
2013-02-20 18:23:00,20.8,15.3,30.38,NW,317,4.6,4.6,79,0.00,CLR,,0.00,0.0,WeatherDisplay:10.37,2013-02-21 00:23:00,
2013-02-20 18:28:00,20.7,15.5,30.39,NW,311,5.8,5.8,80,0.00,CLR,,0.00,0.0,WeatherDisplay:10.37,2013-02-21 00:28:00,
2013-02-20 18:33:00,20.6,15.4,30.39,NW,311,5.8,5.8,80,0.00,CLR,,0.00,0.0,WeatherDisplay:10.37,2013-02-21 00:33:00,
2013-02-20 18:38:00,20.4,15.2,30.39,NW,313,3.5,3.5,80,0.00,CLR,,0.00,0.0,WeatherDisplay:10.37,2013-02-21 00:38:00,
2013-02-20 18:44:00,20.4,15.5,30.40,WNW,296,4.6,4.6,81,0.00,CLR,,0.00,0.0,WeatherDisplay:10.37,2013-02-21 00:44:00,
2013-02-20 18:49:00,20.4,15.5,30.40,WNW,291,3.5,3.5,81,0.00,CLR,,0.00,0.0,WeatherDisplay:10.37,2013-02-21 00:49:00,
2013-02-20 18:54:00,20.3,15.4,30.40,NW,311,4.0,4.0,81,0.00,CLR,,0.00,0.0,WeatherDisplay:10.37,2013-02-21 00:54:00,
2013-02-20 18:59:00,20.1,15.2,30.40,NW,309,5.8,5.8,81,0.00,CLR,,0.00,0.0,WeatherDisplay:10.37,2013-02-21 00:59:00,
2013-02-20 19:04:00,20.0,15.4,30.39,NW,314,4.6,4.6,82,0.00,CLR,,0.00,0.0,WeatherDisplay:10.37,2013-02-21 01:04:00,
2013-02-20 19:09:00,19.9,15.3,30.39,NW,311,4.6,4.6,82,0.00,CLR,,0.00,0.0,WeatherDisplay:10.37,2013-02-21 01:09:00,
2013-02-20 19:14:00,19.8,15.2,30.39,NW,309,3.5,3.5,82,0.00,CLR,,0.00,0.0,WeatherDisplay:10.37,2013-02-21 01:14:00,
2013-02-20 19:19:00,19.7,15.1,30.40,NW,312,3.5,3.5,82,0.00,CLR,,0.00,0.0,WeatherDisplay:10.37,2013-02-21 01:19:00,
2013-02-20 19:24:00,19.6,15.3,30.40,NW,312,3.5,3.5,83,0.00,CLR,,0.00,0.0,WeatherDisplay:10.37,2013-02-21 01:24:00,
2013-02-20 19:29:00,19.5,15.2,30.40,NW,323,3.5,3.5,83,0.00,CLR,,0.00,0.0,WeatherDisplay:10.37,2013-02-21 01:29:00,
2013-02-20 19:34:00,19.2,15.2,30.40,NW,323,3.5,3.5,84,0.00,CLR,,0.00,0.0,WeatherDisplay:10.37,2013-02-21 01:34:00,
2013-02-20 19:39:00,19.0,15.0,30.40,North,355,3.5,3.5,84,0.00,CLR,,0.00,0.0,WeatherDisplay:10.37,2013-02-21 01:39:00,
2013-02-20 19:44:00,18.9,15.1,30.40,NNW,342,3.5,3.7,85,0.00,CLR,,0.00,0.0,WeatherDisplay:10.37,2013-02-21 01:44:00,
2013-02-20 19:49:00,18.7,14.9,30.40,NNW,342,3.5,3.5,85,0.00,CLR,,0.00,0.0,WeatherDisplay:10.37,2013-02-21 01:49:00,
2013-02-20 19:54:00,18.5,14.7,30.39,NNW,342,3.5,3.5,85,0.00,CLR,,0.00,0.0,WeatherDisplay:10.37,2013-02-21 01:54:00,
2013-02-20 19:59:00,18.5,14.7,30.39,NNW,342,3.5,3.5,85,0.00,CLR,,0.00,0.0,WeatherDisplay:10.37,2013-02-21 01:59:00,
2013-02-20 20:04:00,18.4,14.6,30.39,NNW,342,3.5,3.5,85,0.00,CLR,,0.00,0.0,WeatherDisplay:10.37,2013-02-21 02:04:00,
2013-02-20 20:09:00,18.2,14.2,30.39,NNW,342,2.3,2.3,84,0.00,CLR,,0.00,0.0,WeatherDisplay:10.37,2013-02-21 02:09:00,
2013-02-20 20:14:00,18.0,14.0,30.38,NNW,342,3.5,3.5,84,0.00,CLR,,0.00,0.0,WeatherDisplay:10.37,2013-02-21 02:14:00,
2013-02-20 20:19:00,17.8,13.8,30.38,NNW,342,3.5,3.5,84,0.00,CLR,,0.00,0.0,WeatherDisplay:10.37,2013-02-21 02:19:00,
2013-02-20 20:24:00,17.6,13.9,30.38,NNW,343,2.3,2.3,85,0.00,CLR,,0.00,0.0,WeatherDisplay:10.37,2013-02-21 02:24:00,
2013-02-20 20:29:00,17.4,13.4,30.39,North,5,3.5,3.5,84,0.00,CLR,,0.00,0.0,WeatherDisplay:10.37,2013-02-21 02:29:00,
2013-02-20 20:34:00,17.2,13.5,30.39,NNE,16,3.5,3.5,85,0.00,CLR,,0.00,0.0,WeatherDisplay:10.37,2013-02-21 02:34:00,
2013-02-20 20:39:00,17.1,13.4,30.39,NNE,19,3.5,3.5,85,0.00,CLR,,0.00,0.0,WeatherDisplay:10.37,2013-02-21 02:39:00,
2013-02-20 20:44:00,17.2,13.5,30.39,NNE,19,3.5,3.5,85,0.00,CLR,,0.00,0.0,WeatherDisplay:10.37,2013-02-21 02:44:00,
2013-02-20 20:49:00,17.2,13.5,30.39,NNE,19,3.5,3.5,85,0.00,CLR,,0.00,0.0,WeatherDisplay:10.37,2013-02-21 02:49:00,
2013-02-20 20:54:00,17.2,13.5,30.40,NNE,19,3.5,3.5,85,0.00,CLR,,0.00,0.0,WeatherDisplay:10.37,2013-02-21 02:54:00,
2013-02-20 20:59:00,17.2,13.7,30.40,NNE,19,2.3,2.3,86,0.00,CLR,,0.00,0.0,WeatherDisplay:10.37,2013-02-21 02:59:00,
2013-02-20 21:04:00,17.3,13.8,30.40,NNE,19,2.3,2.3,86,0.00,CLR,,0.00,0.0,WeatherDisplay:10.37,2013-02-21 03:04:00,
2013-02-20 21:09:00,17.4,13.7,30.40,NNE,19,2.3,2.3,85,0.00,CLR,,0.00,0.0,WeatherDisplay:10.37,2013-02-21 03:09:00,
2013-02-20 21:14:00,17.4,13.7,30.40,NNE,19,3.5,3.5,85,0.00,CLR,,0.00,0.0,WeatherDisplay:10.37,2013-02-21 03:14:00,
2013-02-20 21:19:00,17.3,13.6,30.39,NNE,19,3.5,3.5,85,0.00,CLR,,0.00,0.0,WeatherDisplay:10.37,2013-02-21 03:19:00,
2013-02-20 21:24:00,17.2,13.5,30.40,NNE,19,3.5,3.5,85,0.00,CLR,,0.00,0.0,WeatherDisplay:10.37,2013-02-21 03:24:00,
2013-02-20 21:29:00,17.2,13.5,30.40,NNE,19,3.5,3.5,85,0.00,CLR,,0.00,0.0,WeatherDisplay:10.37,2013-02-21 03:29:00,
2013-02-20 21:34:00,17.1,13.1,30.40,NNE,19,2.3,2.3,84,0.00,CLR,,0.00,0.0,WeatherDisplay:10.37,2013-02-21 03:34:00,
2013-02-20 21:39:00,16.9,13.2,30.40,NNE,19,3.5,3.5,85,0.00,CLR,,0.00,0.0,WeatherDisplay:10.37,2013-02-21 03:39:00,
2013-02-20 21:44:00,16.8,13.1,30.39,NNE,19,3.5,3.5,85,0.00,CLR,,0.00,0.0,WeatherDisplay:10.37,2013-02-21 03:44:00,
2013-02-20 21:49:00,16.7,13.0,30.39,NNE,19,3.5,3.5,85,0.00,CLR,,0.00,0.0,WeatherDisplay:10.37,2013-02-21 03:49:00,
2013-02-20 21:54:00,16.4,12.7,30.40,NNE,19,2.3,2.3,85,0.00,CLR,,0.00,0.0,WeatherDisplay:10.37,2013-02-21 03:54:00,
2013-02-20 21:59:00,16.3,12.6,30.40,NNE,19,2.3,2.3,85,0.00,CLR,,0.00,0.0,WeatherDisplay:10.37,2013-02-21 03:59:00,
2013-02-20 22:04:00,16.2,12.5,30.40,NNE,19,3.5,3.5,85,0.00,CLR,,0.00,0.0,WeatherDisplay:10.37,2013-02-21 04:04:00,
2013-02-20 22:09:00,16.4,12.9,30.40,NNE,19,2.3,2.3,86,0.00,CLR,,0.00,0.0,WeatherDisplay:10.37,2013-02-21 04:09:00,
2013-02-20 22:14:00,16.2,12.2,30.40,NNE,19,0.0,0.0,84,0.00,CLR,,0.00,0.0,WeatherDisplay:10.37,2013-02-21 04:14:00,
2013-02-20 22:19:00,16.1,12.4,30.40,NNE,19,3.5,3.5,85,0.00,CLR,,0.00,0.0,WeatherDisplay:10.37,2013-02-21 04:19:00,
2013-02-20 22:24:00,16.2,12.7,30.40,NNE,19,3.5,3.5,86,0.00,CLR,,0.00,0.0,WeatherDisplay:10.37,2013-02-21 04:24:00,
2013-02-20 22:29:00,16.1,12.4,30.40,NNE,19,2.3,2.3,85,0.00,CLR,,0.00,0.0,WeatherDisplay:10.37,2013-02-21 04:29:00,
2013-02-20 22:34:00,16.1,12.4,30.40,NNE,19,1.1,1.4,85,0.00,CLR,,0.00,0.0,WeatherDisplay:10.37,2013-02-21 04:34:00,
2013-02-20 22:39:00,16.2,12.5,30.40,NNE,19,1.1,1.1,85,0.00,CLR,,0.00,0.0,WeatherDisplay:10.37,2013-02-21 04:39:00,
2013-02-20 22:44:00,16.1,12.1,30.40,NNE,19,0.0,0.0,84,0.00,CLR,,0.00,0.0,WeatherDisplay:10.37,2013-02-21 04:44:00,
2013-02-20 22:49:00,16.0,12.3,30.40,NNE,19,0.0,0.0,85,0.00,CLR,,0.00,0.0,WeatherDisplay:10.37,2013-02-21 04:49:00,
2013-02-20 22:54:00,16.3,12.8,30.40,NNE,19,1.0,1.0,86,0.00,CLR,,0.00,0.0,WeatherDisplay:10.37,2013-02-21 04:54:00,
2013-02-20 22:59:00,16.6,12.9,30.40,NNE,19,2.3,2.3,85,0.00,CLR,,0.00,0.0,WeatherDisplay:10.37,2013-02-21 04:59:00,
2013-02-20 23:00:00,16.6,12.9,30.40,NNE,19,2.3,2.3,85,0.00,CLR,,0.00,0.0,WeatherDisplay:10.37,2013-02-21 05:00:00,
2013-02-20 23:05:00,16.8,13.1,30.40,NNE,19,1.1,0.0,85,0.00,CLR,,0.00,0.0,WeatherDisplay:10.37,2013-02-21 05:05:00,
2013-02-20 23:10:00,17.0,13.3,30.40,NNE,19,1.1,1.1,85,0.00,CLR,,0.00,0.0,WeatherDisplay:10.37,2013-02-21 05:10:00,
2013-02-20 23:15:00,17.3,13.6,30.40,NNE,19,1.1,1.1,85,0.00,CLR,,0.00,0.0,WeatherDisplay:10.37,2013-02-21 05:15:00,
2013-02-20 23:20:00,17.6,14.1,30.40,NNE,19,1.1,1.1,86,0.00,CLR,,0.00,0.0,WeatherDisplay:10.37,2013-02-21 05:20:00,
2013-02-20 23:25:00,17.9,14.2,30.40,WSW,248,3.5,3.5,85,0.00,CLR,,0.00,0.0,WeatherDisplay:10.37,2013-02-21 05:25:00,
2013-02-20 23:30:00,18.2,14.4,30.40,WNW,295,3.5,3.5,85,0.00,CLR,,0.00,0.0,WeatherDisplay:10.37,2013-02-21 05:30:00,
2013-02-20 23:35:00,18.4,14.6,30.40,WNW,298,2.3,2.3,85,0.00,CLR,,0.00,0.0,WeatherDisplay:10.37,2013-02-21 05:35:00,
2013-02-20 23:40:00,18.6,14.6,30.40,WNW,298,1.1,1.1,84,0.00,CLR,,0.00,0.0,WeatherDisplay:10.37,2013-02-21 05:40:00,
2013-02-20 23:45:00,18.8,14.5,30.40,WNW,298,2.3,2.3,83,0.00,CLR,,0.00,0.0,WeatherDisplay:10.37,2013-02-21 05:45:00,
2013-02-20 23:50:00,18.9,14.3,30.40,WNW,298,3.5,3.5,82,0.00,CLR,,0.00,0.0,WeatherDisplay:10.37,2013-02-21 05:50:00,
2013-02-20 23:55:00,19.0,14.4,30.40,WNW,298,3.5,3.5,82,0.00,CLR,,0.00,0.0,WeatherDisplay:10.37,2013-02-21 05:55:00,